[[{"header":{"parameterUnit":"m.s-1","parameterCategory":1,"la1":30.2991,"la2":30.254,"lo1":-89.0895,"lo2":-89.0444,"dy":0.0017,"dx":0.0017,"nx":28,"ny":28,"refTime":"2024-07-15T21:00:00:Z","depth":0,"parameterNumber":2,"parameterNumberName":"U-component_of_WINDS"},"data":[0,0,0,0,0,0,0,0,0,0,0,0,0,0,0,0,0,0,0,0,0,0,0,0,0,0,0,0,0,0,0,0,0,0,0,0,0,0,0,0,0,0,0,0,0,0,0,0,0,0,0,0,0,0,0,0,0,0,2.8083,2.8084,0,2.8215,2.8217,2.8218,2.8208,2.8206,2.8204,2.8202,2.8337,2.8342,2.8348,0,0,0,0,0,0,0,0,0,0,0,0,0,2.7818,2.7823,2.8083,2.8084,2.8086,2.8215,2.8217,2.8219,2.8209,2.8206,2.8204,2.8201,2.8335,2.8342,2.8348,0,0,0,0,0,0,0,0,0,0,0,0,0,2.794,2.7825,2.8082,2.8097,2.8099,2.8215,2.8217,2.8219,2.8209,2.8206,2.8203,2.82,2.8333,2.8341,2.8349,2.8459,0,0,2.8374,2.8377,0,0,0,0,0,0,0,0,2.7933,2.795,2.8093,2.8096,2.8099,2.8192,2.8173,2.8299,2.821,2.8167,2.8202,2.8199,2.8291,2.8303,2.8334,2.8465,2.8471,2.8375,2.838,2.8383,2.8385,0,0,0,0,0,0,0,2.7925,2.7944,2.8135,2.8095,2.8099,2.8095,2.8109,2.8197,2.8244,2.8171,2.817,2.8186,2.8292,2.8326,2.8337,2.8473,2.8374,2.8382,2.8387,2.839,2.8696,2.87,0,0,0,0,0,0,2.7914,2.7937,2.8131,2.8139,2.8007,2.8103,2.8118,2.8165,2.8243,2.8252,2.8189,2.8185,2.8314,2.8327,2.8342,2.8472,2.8383,2.8391,2.8395,2.8693,2.8697,2.8701,0,0,0,0,0,0,2.7908,2.7931,2.8126,2.8038,2.8063,2.811,2.8163,2.8169,2.8203,2.8257,2.8265,2.8215,2.8312,2.833,2.8429,2.8477,2.8394,2.8402,2.8689,2.8694,2.8699,2.8736,0,0,0,0,0,0,2.79,2.7929,2.7972,2.8039,2.8067,2.8212,2.8166,2.8174,2.8217,2.8214,2.8283,2.8292,2.8311,2.8417,2.8437,2.8487,2.8408,2.8685,2.8692,2.8697,2.8731,2.8742,2.8751,0,0,0,0,0,2.7891,2.7978,2.7974,2.7998,2.8122,2.8214,2.823,2.8251,2.8221,2.8264,2.8298,2.829,2.8469,2.8427,2.845,2.8502,2.8682,2.869,2.8697,2.8726,2.874,2.8751,0,0,0,0,0,0,2.7915,2.7987,2.7984,2.8095,2.8149,2.8212,2.8267,2.8265,2.8328,2.8322,2.8344,2.836,2.8458,2.8491,2.8443,2.8611,2.8571,2.8584,2.8586,2.8599,2.8609,2.8598,2.8415,0,0,0,0,0,2.7934,2.8003,2.8062,2.8154,2.8181,2.822,2.8261,2.8271,2.8328,2.835,2.8392,2.8446,2.8514,2.8559,2.8625,2.8736,2.8749,2.8783,2.8793,2.8801,2.8811,2.8869,2.8884,2.8725,2.8725,2.8725,0,0,2.7972,2.802,2.8063,2.816,2.8203,2.8273,2.8239,2.8315,2.8367,2.8362,2.8457,2.8489,2.8551,2.8655,2.8703,2.8685,2.8858,2.8811,2.8817,2.8822,2.8878,2.8893,2.8906,2.873,2.8729,2.8728,0,0,2.8078,2.8122,2.8202,2.8246,2.831,2.8335,2.8354,2.8418,2.8439,2.8535,2.8531,2.8593,2.8711,2.8754,2.8791,2.8911,2.8904,2.8932,2.8984,2.904,2.9052,2.9063,2.9103,2.9117,2.8941,2.8942,2.8942,0,2.8117,2.8224,2.8244,2.832,2.8362,2.836,2.844,2.8481,2.8564,2.8593,2.8571,2.8717,2.8759,2.8872,2.89,2.8932,2.8953,2.8923,2.9049,2.906,2.9071,2.9109,2.9124,2.8944,2.8944,2.8944,2.8943,0,2.8267,2.8341,2.8398,2.8477,2.8526,2.8604,2.8634,2.8681,2.8687,2.8713,2.8809,2.8859,2.8933,2.8961,2.8969,2.9075,2.9061,2.9044,2.9005,2.9088,2.9124,2.9139,2.8948,2.8947,2.8946,2.8946,0,0,2.8393,2.8481,2.8501,2.8535,2.8606,2.8662,2.8739,2.8812,2.885,2.8907,2.897,2.9069,2.9053,2.9095,2.9107,2.9157,2.9244,2.9134,2.9135,2.915,2.936,2.937,2.9387,2.9241,2.9244,2.9246,2.9354,0,2.8503,2.8639,2.8659,2.8778,2.8845,2.8843,2.8909,2.8959,2.8985,2.9044,2.9073,2.9141,2.9117,2.9142,2.9191,2.9223,2.9286,2.9216,2.9298,2.9301,2.928,2.9407,2.9419,2.9518,2.9368,2.9371,2.9373,0,2.8651,2.871,2.8836,2.8895,2.8923,2.8983,2.9049,2.9107,2.9162,2.9177,2.9223,2.9228,2.9306,2.9264,2.937,2.9322,2.9356,2.9377,2.9381,2.9388,2.934,2.9414,2.9551,2.9564,2.9396,2.9394,2.9392,0,2.8726,2.8838,2.8927,2.8957,2.9028,2.9069,2.9101,2.9153,2.9194,2.9252,2.9279,2.9345,2.9381,2.9432,2.9454,2.9422,2.9557,2.9518,2.957,2.957,2.9598,2.9595,2.9739,2.9624,2.9624,2.9624,2.9623,0,2.8846,2.8922,2.8961,2.9015,2.91,2.9121,2.9204,2.9234,2.928,2.9339,2.9342,2.9397,2.9425,2.9483,2.9502,2.9584,2.9602,2.9615,2.9618,2.9613,2.9611,2.9635,2.9627,2.9628,2.9627,2.9626,2.9625,0,2.8944,2.8973,2.9069,2.9128,2.9144,2.9204,2.9253,2.9305,2.933,2.9405,2.9424,2.9463,2.9532,2.956,2.9645,2.9657,2.9751,2.9751,2.9732,2.9733,2.9782,2.9776,2.9944,2.9966,2.9839,2.984,2.9841,0,2.9017,2.9076,2.914,2.918,2.9212,2.9277,2.9318,2.934,2.9383,2.9449,2.9492,2.9561,2.9617,2.9728,2.9763,2.9828,2.9827,2.9881,2.9837,2.9829,2.9824,2.9819,2.9824,2.9889,2.989,2.9891,2.9892,0,2.9144,2.9155,2.9215,2.928,2.9329,2.9381,2.9432,2.9464,2.9493,2.9541,2.9612,2.9655,2.9741,2.9808,2.9874,2.9905,2.9903,2.9906,2.9921,2.9915,2.9901,2.9906,2.9752,2.9902,2.9901,2.99,2.99,2.9899,2.9231,2.9281,2.9333,2.9399,2.9439,2.9486,2.9536,2.9567,2.9626,2.9697,2.9707,2.9781,2.9832,2.992,2.9954,3.0012,2.9997,3.002,3.0025,3.003,3.0031,2.9894,3.0024,3.0024,3.0024,3.0024,3.0024,0,2.9355,2.9388,2.9448,2.9518,2.9569,2.9563,2.9618,2.9661,2.9726,2.9774,2.9829,2.9908,2.9973,3.0013,3.0077,3.0116,3.0116,3.0132,3.0128,3.0134,3.0042,3.0021,3.013,3.013,3.013,3.013,3.013,3.013,2.9426,2.951,2.9526,2.9629,2.9662,2.9734,2.9766,2.9808,2.9846,2.9934,2.9987,3.0013,3.0057,3.0124,3.0183,3.0193,3.0215,3.0232,3.024,3.0153,3.0141,3.0131,3.0111,3.0237,3.0237,3.0327,3.0328,3.0329]},{"header":{"parameterUnit":"m.s-1","parameterCategory":1,"la1":30.2991,"la2":30.254,"lo1":-89.0895,"lo2":-89.0444,"dy":0.0017,"dx":0.0017,"nx":28,"ny":28,"refTime":"2024-07-15T21:00:00:Z","depth":0,"parameterNumber":3,"parameterNumberName":"V-component_of_WINDS"},"data":[0,0,0,0,0,0,0,0,0,0,0,0,0,0,0,0,0,0,0,0,0,0,0,0,0,0,0,0,0,0,0,0,0,0,0,0,0,0,0,0,0,0,0,0,0,0,0,0,0,0,0,0,0,0,0,0,0,0,0.3195,0.3194,0,0.3169,0.3168,0.3168,0.315,0.315,0.315,0.315,0.3124,0.3124,0.3123,0,0,0,0,0,0,0,0,0,0,0,0,0,0.3228,0.3227,0.3195,0.3194,0.3194,0.3169,0.3168,0.3168,0.315,0.315,0.315,0.315,0.3124,0.3124,0.3123,0,0,0,0,0,0,0,0,0,0,0,0,0,0.3209,0.3227,0.3195,0.3182,0.3181,0.3169,0.3168,0.3168,0.315,0.315,0.315,0.315,0.3124,0.3124,0.3123,0.3122,0,0,0.312,0.312,0,0,0,0,0,0,0,0,0.321,0.3208,0.3184,0.3183,0.3181,0.3162,0.3171,0.3153,0.315,0.3162,0.315,0.315,0.3137,0.3135,0.3131,0.3121,0.312,0.312,0.312,0.3119,0.3119,0,0,0,0,0,0,0,0.3211,0.3209,0.3184,0.3184,0.3182,0.3177,0.3174,0.3167,0.3151,0.3161,0.3159,0.3157,0.3136,0.3132,0.313,0.3119,0.312,0.312,0.3119,0.3119,0.3105,0.3105,0,0,0,0,0,0,0.3215,0.321,0.3185,0.3184,0.3195,0.3177,0.3174,0.3169,0.3151,0.3148,0.3157,0.3156,0.3133,0.3131,0.3129,0.3126,0.3119,0.3119,0.3118,0.3105,0.3105,0.3105,0,0,0,0,0,0,0.3216,0.3213,0.3186,0.3196,0.3193,0.3177,0.3171,0.3168,0.3164,0.3148,0.3145,0.3155,0.3133,0.313,0.3123,0.3125,0.3118,0.3117,0.3105,0.3105,0.3105,0.312,0,0,0,0,0,0,0.3217,0.3213,0.3213,0.3197,0.3192,0.3181,0.3171,0.3168,0.3162,0.3161,0.3146,0.3143,0.3133,0.3125,0.3123,0.3124,0.3117,0.3105,0.3105,0.3105,0.3119,0.3121,0.3122,0,0,0,0,0,0.3218,0.3219,0.3213,0.321,0.3192,0.3181,0.3179,0.3167,0.3163,0.3162,0.3151,0.3143,0.3125,0.3124,0.3122,0.3122,0.3105,0.3105,0.3105,0.3119,0.3121,0.3122,0,0,0,0,0,0,0.3236,0.3216,0.321,0.3206,0.3195,0.3178,0.3178,0.3169,0.316,0.3159,0.3145,0.3141,0.3136,0.3128,0.3128,0.312,0.3114,0.3113,0.3125,0.3126,0.3128,0.313,0.3116,0,0,0,0,0,0.324,0.3233,0.3216,0.3214,0.3209,0.3194,0.3189,0.318,0.3169,0.3165,0.3154,0.3144,0.3135,0.313,0.3122,0.3118,0.3114,0.3117,0.3118,0.3119,0.312,0.3115,0.3116,0.3106,0.3106,0.3106,0,0,0.3247,0.3235,0.3232,0.3217,0.3208,0.3201,0.3191,0.3184,0.3179,0.3164,0.3157,0.3148,0.3136,0.313,0.3127,0.3123,0.3121,0.312,0.3121,0.312,0.3116,0.3117,0.3118,0.3107,0.3107,0.3107,0,0,0.3257,0.3248,0.3244,0.3235,0.3221,0.3211,0.321,0.3194,0.3188,0.318,0.3168,0.3161,0.3148,0.3139,0.3132,0.3136,0.3128,0.3134,0.3141,0.3137,0.3138,0.3138,0.3139,0.314,0.3134,0.3134,0.3134,0,0.3268,0.3257,0.3244,0.3237,0.3231,0.3216,0.3212,0.3204,0.3188,0.3183,0.318,0.3161,0.3151,0.3143,0.3143,0.3139,0.3137,0.3136,0.3139,0.3139,0.314,0.314,0.3141,0.3135,0.3135,0.3135,0.3135,0,0.3271,0.3264,0.3263,0.3247,0.324,0.3235,0.322,0.3214,0.3205,0.3195,0.3187,0.3175,0.3163,0.316,0.3152,0.3149,0.3148,0.3142,0.3135,0.3142,0.3142,0.3142,0.3136,0.3136,0.3135,0.3135,0,0,0.3294,0.3269,0.3269,0.3261,0.3243,0.3237,0.3231,0.3218,0.3214,0.3203,0.3197,0.3184,0.3178,0.3171,0.3161,0.3158,0.3161,0.3152,0.3151,0.3154,0.3156,0.3161,0.3161,0.3155,0.3155,0.3155,0.3157,0,0.3301,0.3288,0.3275,0.3267,0.3259,0.3244,0.3239,0.3227,0.3217,0.3209,0.3198,0.3189,0.3182,0.3177,0.3173,0.3161,0.3161,0.3161,0.3149,0.3149,0.3153,0.3162,0.3167,0.317,0.3157,0.3157,0.3157,0,0.3308,0.3296,0.3288,0.327,0.3266,0.3261,0.3248,0.324,0.3226,0.3219,0.321,0.32,0.3191,0.3186,0.3174,0.3174,0.3168,0.3161,0.3161,0.3159,0.3154,0.316,0.317,0.3171,0.3157,0.3157,0.3157,0,0.3324,0.3307,0.3299,0.3293,0.3272,0.3268,0.3259,0.3245,0.3238,0.3226,0.3221,0.3209,0.3203,0.3193,0.3179,0.3176,0.3168,0.3162,0.3162,0.3162,0.3161,0.3161,0.317,0.3157,0.3157,0.3157,0.3157,0,0.3333,0.3329,0.3306,0.3301,0.3295,0.3279,0.3273,0.3263,0.325,0.3242,0.3229,0.3222,0.3204,0.3195,0.3184,0.3175,0.3172,0.3166,0.3163,0.3167,0.3168,0.3163,0.3163,0.3158,0.3158,0.3158,0.3157,0,0.3351,0.3336,0.3326,0.3306,0.3301,0.3297,0.328,0.3275,0.3263,0.3254,0.325,0.3232,0.3221,0.3206,0.319,0.3182,0.3174,0.317,0.3179,0.3177,0.3178,0.3178,0.3184,0.3184,0.3172,0.3172,0.3172,0,0.3358,0.3354,0.3333,0.3327,0.3318,0.3308,0.3301,0.3284,0.3276,0.3259,0.3255,0.3243,0.3232,0.3214,0.3199,0.3186,0.3181,0.3184,0.3179,0.3183,0.3181,0.3181,0.318,0.3186,0.3186,0.3186,0.3186,0,0.3372,0.3364,0.3354,0.334,0.3331,0.3319,0.3307,0.3303,0.3283,0.3275,0.3263,0.3254,0.3237,0.3224,0.3209,0.3199,0.3189,0.3187,0.3187,0.3191,0.3196,0.3193,0.3182,0.3188,0.3187,0.3187,0.3187,0.3187,0.3385,0.3379,0.3363,0.3352,0.334,0.3329,0.3322,0.3309,0.3298,0.3283,0.3273,0.3261,0.3245,0.3224,0.3214,0.3204,0.3201,0.32,0.3199,0.3199,0.32,0.3197,0.3202,0.3201,0.3201,0.3201,0.3201,0,0.3397,0.3386,0.3375,0.3358,0.3348,0.3338,0.3324,0.3316,0.3306,0.3292,0.3281,0.3266,0.3252,0.3236,0.3222,0.3217,0.3211,0.3213,0.3214,0.3211,0.3205,0.3207,0.3218,0.3218,0.3218,0.3218,0.3218,0.3218,0.3403,0.3393,0.3383,0.3368,0.3356,0.3343,0.3336,0.3325,0.3313,0.3297,0.3286,0.3275,0.326,0.3244,0.3231,0.3226,0.3222,0.3225,0.3219,0.3213,0.3212,0.3211,0.3212,0.3224,0.3224,0.3226,0.3226,0.3226]}]]